Wind_Speed
7 7 7 9 11 12 14 15 16 16 16 17 19 19 18 15 14 13 10 9 7 9 9 9 9 10 7 5 5 6 7 6 6 6 6 5 5 5 5 6 6 6 6
9 9 10 11 11 12 13 14 16 17 18 18 20 20 19 17 16 16 15 13 12 11 11 11 12 11 11 9 8 8 9 8 8 8 7 7 6 6 6 7 8 8 7
9 11 12 13 12 13 13 15 16 18 21 21 19 18 16 16 15 14 16 17 16 15 14 14 14 15 14 14 10 10 10 11 11 11 10 9 9 8 7 7 8 9 8
13 13 14 15 14 15 16 18 19 19 18 18 17 15 13 13 12 11 11 12 15 18 18 17 17 17 16 16 14 12 13 13 13 12 13 12 12 11 10 9 9 10 9
13 15 15 16 17 14 15 17 19 18 17 16 15 15 13 10 9 8 8 9 10 12 17 21 20 19 20 19 18 16 15 15 15 15 15 14 14 14 14 13 12 12 11
14 15 17 17 16 15 18 16 16 16 15 14 13 14 12 10 9 10 9 8 8 9 11 16 21 22 22 21 20 20 19 21 18 18 17 17 16 16 17 17 16 16 15
14 13 13 11 16 16 14 15 15 15 14 12 12 13 10 10 10 8 8 9 9 9 9 11 16 21 24 24 24 22 22 24 24 23 22 21 20 19 19 19 19 19 19
6 5 6 6 8 10 13 14 15 13 11 10 9 10 10 10 11 9 9 8 8 9 9 11 12 15 19 24 27 27 26 25 26 27 26 25 25 24 22 22 22 22 22
6 6 5 6 8 10 12 12 11 10 9 9 8 6 6 8 10 10 10 10 10 11 12 12 14 15 16 19 21 27 29 30 29 29 31 30 30 29 28 27 25 25 25
15 13 11 11 12 12 12 13 11 9 8 7 6 6 4 6 7 9 12 13 13 13 13 14 15 16 17 18 19 22 25 28 32 34 34 34 33 32 32 31 30 30 29
16 17 17 13 12 13 13 12 12 10 9 8 8 7 8 9 7 6 8 12 15 15 15 15 16 18 19 21 22 23 25 28 29 31 33 36 37 36 36 35 35 34 33
10 12 14 16 15 15 15 14 13 13 11 10 9 9 9 10 12 12 10 12 13 15 17 18 17 17 20 22 24 25 26 28 30 32 34 36 37 38 39 39 39 38 37
8 10 12 14 16 17 17 16 14 12 12 11 10 10 11 12 14 15 16 15 16 17 18 20 23 25 25 25 26 27 28 29 30 31 32 35 38 40 41 41 43 42 42
10 13 14 16 16 19 18 17 14 12 12 13 13 13 14 16 16 18 18 18 17 18 20 20 21 25 27 29 30 30 30 29 32 32 32 33 34 35 39 42 43 45 46
13 15 16 16 17 17 18 17 17 16 14 15 15 15 16 18 18 19 20 22 23 23 24 25 25 27 28 27 28 29 30 32 33 34 35 35 36 35 37 38 42 46 46
17 18 18 17 17 16 16 16 17 17 16 17 18 18 19 20 20 18 20 22 24 27 26 27 29 26 26 27 27 28 30 31 33 34 37 37 39 39 39 40 41 42 47
24 20 21 19 17 17 17 16 16 17 16 17 18 19 19 19 19 21 22 24 25 27 30 24 30 30 25 26 28 31 31 32 33 33 34 36 38 41 43 43 44 44 44
27 25 25 22 20 19 18 18 16 15 16 17 18 20 21 21 20 21 22 22 25 29 34 35 27 28 31 27 29 29 30 32 32 31 33 35 38 41 45 46 46 47 47
33 27 27 23 24 22 18 17 17 16 14 15 18 21 20 21 22 24 24 25 29 28 33 36 33 28 29 28 29 29 30 33 34 34 33 32 38 44 47 49 52 50 49
30 32 28 25 28 25 20 17 16 17 14 17 21 23 22 25 25 25 27 29 31 30 32 34 33 31 29 29 32 32 33 35 36 36 37 41 37 39 46 52 53 55 52
31 30 28 28 29 26 23 19 17 19 19 21 24 25 24 26 26 28 32 32 32 34 38 37 37 36 32 35 37 37 38 38 39 43 45 42 40 45 46 43 49 56 56
30 35 28 30 28 28 24 21 20 21 24 26 27 28 27 27 28 34 33 33 31 35 39 38 34 32 33 36 38 38 38 40 46 44 48 46 47 53 50 37 40 49 53
44 25 35 32 30 25 24 25 24 24 27 29 30 27 29 30 33 35 33 32 30 36 38 35 32 31 36 34 38 39 39 44 47 44 49 52 55 61 49 41 42 46 50
40 31 31 31 26 26 27 29 26 27 28 30 31 31 33 31 35 34 32 30 32 35 36 34 35 36 36 35 39 42 44 47 48 46 49 61 62 55 48 40 39 45 50
38 41 33 32 31 32 35 34 28 35 32 32 30 32 33 34 32 33 35 35 36 33 35 36 35 37 37 36 39 45 43 46 49 50 50 61 62 52 35 32 35 43 49
30 23 33 28 28 29 30 31 34 42 44 36 28 33 35 34 33 35 34 34 34 33 33 33 35 35 35 35 37 39 41 44 48 54 52 58 56 37 33 26 24 33 42
Wind_Direction
275 291 291 292 298 299 301 307 310 311 307 306 306 304 299 293 287 283 277 272 250 250 247 241 232 234 275 268 241 222 219 212 204 206 201 207 218 227 219 223 221 214 199
279 287 295 296 301 298 297 301 304 303 303 302 300 300 299 288 279 270 265 264 256 245 245 247 234 229 240 264 258 246 235 230 227 224 222 219 215 223 225 225 226 224 216
284 287 296 295 299 295 290 300 304 307 309 306 305 306 301 295 291 283 266 254 251 248 244 246 240 233 227 237 258 252 247 244 240 240 236 233 227 223 222 221 226 228 222
278 288 291 293 291 294 301 304 306 310 311 316 317 311 306 306 301 289 285 269 252 247 246 244 243 241 234 232 238 253 253 251 247 242 244 240 239 233 226 222 225 226 223
264 274 278 281 282 291 302 303 306 310 314 316 314 310 315 309 307 307 291 278 270 257 246 244 241 243 241 238 237 240 253 254 251 250 246 245 240 241 235 226 225 228 226
270 269 273 277 282 290 298 299 300 302 305 309 306 304 306 307 312 314 309 295 277 269 257 247 244 243 243 242 245 243 244 260 258 249 250 249 247 242 241 236 229 230 232
259 270 269 265 275 284 290 294 296 296 297 301 298 295 295 299 304 308 307 296 291 281 271 255 249 248 248 246 249 249 245 242 255 253 247 248 249 247 244 245 243 237 233
254 266 286 292 296 299 303 302 298 297 294 297 285 278 290 298 297 300 299 298 292 286 278 274 262 252 253 254 252 250 252 249 242 250 251 247 246 245 246 246 244 246 244
65 48 22 359 341 333 327 318 318 317 309 301 291 277 273 284 297 303 302 297 293 288 283 276 270 269 263 258 256 252 250 251 252 250 250 252 250 249 247 245 245 244 244
56 47 35 22 8 357 346 335 328 320 313 309 310 307 300 280 279 289 296 295 294 290 285 279 276 273 271 267 264 259 256 253 252 253 253 252 252 251 251 250 246 245 244
50 40 30 16 4 2 352 336 325 319 316 315 313 316 315 309 303 287 287 295 295 292 284 278 278 277 271 271 269 265 263 261 258 257 256 254 254 253 252 250 249 247 246
38 27 22 13 1 353 349 339 333 325 319 316 316 319 310 305 303 299 289 281 280 282 282 281 277 273 276 275 273 272 268 265 264 261 260 258 257 255 253 251 250 247 246
354 354 357 4 359 353 342 340 333 324 319 316 316 310 305 302 298 294 295 293 282 277 277 280 284 285 283 281 277 274 272 271 268 266 263 261 259 258 255 253 249 248 247
320 325 335 342 350 350 337 334 328 326 320 316 314 310 307 300 298 296 296 293 287 281 279 279 283 288 288 285 283 281 276 272 271 270 267 265 261 261 257 254 252 248 246
300 308 315 325 337 341 332 326 326 326 326 319 315 312 304 300 299 297 294 295 295 294 293 291 290 291 287 284 282 279 274 272 270 270 270 268 266 265 262 260 254 250 248
289 300 302 312 322 320 320 319 321 324 322 319 313 306 302 297 297 299 296 292 293 296 299 301 297 294 292 288 286 282 280 276 271 269 270 270 270 268 265 263 259 254 249
282 289 294 298 302 297 310 309 314 317 321 316 309 308 307 306 302 298 296 300 301 302 302 301 297 292 290 292 290 288 284 281 278 273 270 271 271 271 269 265 260 257 251
264 277 283 284 290 288 304 302 303 311 315 314 308 309 307 304 307 306 303 305 303 306 305 302 298 292 294 293 292 289 287 283 280 279 275 273 275 272 269 268 263 257 254
261 265 279 275 282 281 285 292 299 302 311 310 309 309 304 306 309 308 306 301 305 307 308 308 309 299 295 296 295 290 286 284 281 280 280 285 282 276 273 269 264 259 254
256 270 270 267 275 274 275 276 286 290 295 311 312 313 307 309 301 301 304 300 299 298 303 306 305 306 302 300 299 297 290 290 290 287 282 284 286 295 292 274 266 259 255
241 250 255 259 268 274 270 270 279 286 291 304 312 313 310 305 300 303 305 303 296 296 302 304 300 296 298 301 303 300 297 297 297 295 296 298 295 294 302 278 267 259 255
291 249 238 252 258 266 265 269 278 290 293 291 303 306 309 306 303 306 303 302 300 299 303 306 295 296 300 299 300 299 299 298 301 302 304 300 301 301 301 280 262 257 255
263 307 248 232 259 250 261 271 279 285 293 291 293 306 308 305 304 304 303 303 297 304 307 299 295 296 301 301 300 300 301 304 303 303 307 303 301 299 297 279 264 253 251
269 277 263 252 235 237 249 257 261 274 277 284 291 303 307 302 302 302 301 302 300 302 300 298 299 301 303 304 301 302 307 305 304 306 311 309 306 303 300 281 260 250 248
279 278 251 248 231 238 249 261 278 275 278 282 285 298 300 302 301 301 303 301 299 295 293 294 297 300 302 302 302 303 306 303 307 308 307 307 308 309 295 278 264 253 246
264 258 237 232 247 251 262 278 276 288 289 280 280 297 299 301 299 300 299 298 298 296 292 292 297 300 299 296 297 300 304 306 307 309 319 314 312 309 294 284 274 254 242
Height
3222 3222 3222 3221 3221 3221 3220 3220 3218 3218 3216 3215 3213 3212 3212 3211 3210 3210 3211 3210 3210 3211 3211 3212 3213 3214 3215 3215 3215 3215 3215 3215 3216 3217 3217 3218 3219 3220 3221 3221 3222 3223 3224
3220 3220 3220 3219 3219 3219 3218 3218 3217 3215 3213 3212 3210 3208 3207 3206 3206 3205 3206 3207 3208 3208 3209 3209 3211 3211 3213 3214 3214 3215 3215 3215 3215 3216 3216 3217 3217 3219 3219 3220 3221 3222 3223
3218 3217 3219 3218 3218 3217 3216 3215 3214 3212 3210 3207 3207 3205 3203 3201 3202 3202 3202 3202 3204 3205 3207 3207 3207 3209 3210 3211 3212 3213 3213 3214 3214 3215 3215 3216 3216 3217 3218 3218 3219 3220 3222
3216 3215 3216 3215 3215 3214 3213 3212 3210 3209 3206 3204 3202 3200 3199 3198 3197 3197 3198 3199 3199 3201 3203 3204 3205 3206 3207 3208 3209 3210 3211 3212 3212 3213 3213 3214 3215 3215 3216 3217 3217 3219 3220
3215 3214 3214 3213 3212 3211 3210 3208 3206 3205 3204 3202 3200 3197 3197 3196 3195 3194 3194 3195 3196 3197 3198 3199 3200 3202 3203 3205 3206 3206 3208 3209 3210 3210 3211 3212 3212 3213 3214 3215 3216 3217 3218
3210 3212 3211 3210 3209 3207 3207 3205 3203 3202 3200 3198 3197 3195 3194 3193 3193 3193 3193 3192 3192 3193 3194 3194 3196 3197 3199 3201 3202 3203 3204 3205 3207 3208 3208 3209 3210 3211 3212 3213 3213 3214 3215
3208 3207 3207 3206 3206 3205 3203 3202 3200 3198 3197 3196 3194 3192 3191 3190 3190 3190 3190 3190 3190 3190 3191 3191 3192 3193 3195 3197 3198 3199 3200 3200 3202 3203 3205 3205 3206 3207 3208 3210 3211 3212 3212
3205 3205 3204 3204 3203 3202 3201 3199 3197 3195 3193 3192 3192 3190 3189 3189 3188 3188 3187 3187 3187 3187 3188 3188 3188 3189 3190 3191 3192 3194 3195 3195 3197 3197 3199 3200 3202 3203 3204 3206 3207 3208 3210
3203 3202 3202 3201 3200 3199 3198 3196 3193 3191 3190 3189 3189 3189 3188 3187 3186 3185 3185 3185 3184 3184 3184 3184 3185 3185 3185 3186 3186 3186 3188 3189 3191 3192 3193 3195 3196 3197 3199 3201 3202 3203 3205
3202 3201 3200 3199 3198 3197 3195 3194 3192 3190 3189 3187 3186 3185 3186 3186 3186 3185 3183 3181 3181 3181 3182 3181 3181 3181 3180 3180 3180 3180 3181 3181 3183 3184 3186 3187 3189 3190 3192 3194 3196 3198 3199
3202 3201 3200 3199 3198 3195 3193 3191 3189 3188 3187 3186 3184 3183 3183 3183 3183 3183 3182 3180 3178 3177 3176 3176 3176 3176 3176 3176 3175 3174 3174 3174 3175 3176 3177 3179 3180 3182 3184 3186 3189 3191 3193
3201 3201 3200 3199 3197 3194 3191 3189 3186 3185 3183 3183 3182 3181 3180 3180 3179 3178 3179 3177 3176 3174 3172 3171 3170 3169 3170 3170 3169 3169 3169 3168 3167 3168 3169 3170 3171 3172 3175 3177 3180 3182 3185
3199 3199 3199 3196 3194 3190 3189 3187 3185 3183 3181 3180 3178 3177 3177 3176 3175 3174 3174 3174 3173 3172 3170 3168 3166 3165 3164 3163 3162 3162 3161 3161 3160 3160 3160 3160 3161 3162 3164 3166 3169 3172 3175
3197 3196 3195 3194 3192 3189 3187 3185 3182 3180 3179 3177 3175 3173 3172 3171 3170 3169 3168 3167 3167 3167 3166 3165 3162 3159 3157 3156 3155 3155 3155 3154 3152 3152 3151 3151 3152 3152 3153 3155 3157 3160 3164
3194 3193 3192 3190 3189 3187 3185 3182 3179 3177 3175 3173 3171 3170 3169 3167 3166 3165 3163 3162 3161 3161 3161 3159 3157 3154 3150 3148 3146 3145 3146 3146 3145 3144 3143 3143 3142 3142 3143 3144 3146 3148 3151
3190 3189 3188 3187 3186 3184 3182 3178 3176 3173 3171 3170 3168 3167 3166 3164 3162 3162 3160 3157 3155 3153 3153 3150 3148 3147 3145 3141 3138 3136 3136 3135 3135 3135 3134 3133 3132 3132 3132 3132 3134 3136 3139
3187 3185 3184 3183 3181 3180 3177 3174 3171 3169 3168 3166 3165 3164 3162 3160 3158 3157 3154 3152 3149 3146 3142 3147 3141 3137 3137 3134 3132 3128 3127 3126 3125 3125 3124 3122 3122 3121 3120 3120 3121 3123 3125
3181 3181 3180 3178 3178 3175 3172 3170 3167 3165 3164 3163 3161 3159 3158 3155 3152 3151 3149 3147 3143 3139 3135 3132 3136 3130 3126 3126 3123 3120 3118 3116 3115 3114 3113 3112 3110 3108 3107 3106 3107 3108 3111
3177 3177 3178 3176 3174 3171 3168 3164 3163 3160 3158 3159 3157 3155 3151 3150 3149 3145 3142 3140 3137 3135 3130 3124 3122 3123 3119 3116 3114 3111 3108 3107 3105 3103 3101 3101 3098 3095 3094 3093 3091 3092 3095
3170 3170 3170 3170 3169 3165 3163 3160 3156 3157 3154 3153 3152 3148 3146 3145 3142 3140 3137 3134 3132 3129 3125 3120 3115 3113 3112 3109 3103 3100 3097 3096 3093 3092 3090 3088 3085 3082 3078 3075 3074 3075 3078
3151 3159 3162 3160 3161 3160 3156 3154 3152 3151 3149 3149 3146 3143 3140 3138 3135 3133 3130 3129 3125 3122 3117 3113 3108 3105 3104 3099 3095 3091 3087 3084 3082 3079 3076 3073 3069 3066 3063 3056 3055 3055 3059
3143 3142 3146 3151 3152 3152 3150 3147 3145 3146 3144 3143 3142 3138 3133 3131 3129 3126 3123 3119 3117 3113 3109 3104 3100 3097 3095 3092 3087 3082 3078 3074 3069 3070 3061 3056 3054 3048 3044 3039 3037 3036 3039
3134 3133 3134 3139 3142 3143 3143 3141 3141 3138 3138 3137 3135 3131 3127 3124 3122 3119 3116 3112 3110 3106 3100 3095 3092 3090 3086 3084 3076 3072 3069 3064 3059 3056 3049 3039 3037 3027 3023 3019 3018 3017 3020
3122 3121 3124 3128 3131 3133 3133 3133 3131 3130 3129 3128 3126 3124 3121 3118 3114 3111 3107 3105 3102 3098 3094 3089 3084 3081 3077 3073 3067 3061 3057 3051 3047 3043 3036 3021 3015 3005 3002 2997 2996 2998 3002
3115 3114 3118 3120 3122 3124 3125 3127 3127 3125 3123 3121 3118 3117 3113 3109 3106 3103 3099 3097 3094 3090 3086 3082 3077 3072 3069 3065 3059 3051 3048 3040 3034 3029 3028 3011 2997 2986 2981 2977 2979 2980 2984
3105 3109 3110 3114 3121 3122 3122 3123 3120 3118 3116 3113 3110 3108 3105 3101 3099 3096 3092 3089 3085 3082 3079 3075 3070 3064 3060 3057 3053 3045 3039 3032 3025 3016 3015 2993 2981 2975 2966 2967 2967 2967 2970